Tracking 33198 objects as of 13-Feb-2026
HD Live streaming from Space Station
objects crossing your sky now

ATLAS F DEB

Track ATLAS F DEB now!
10-day predictions


NORAD ID: 29197
Int'l Code: 1978-047C
Perigee: 486.6 km
Apogee: 2,697.0 km
Inclination: 63.7 °
Period: 117.9 minutes
Semi major axis: 7962 km
RCS: 0.105 m2 (medium)
Launch date: May 13, 1978
Source: United States (US)
Launch site: AIR FORCE WESTERN TEST RANGE (AFWTR)

Note: This is SATELLITE DEBRIS
Your satellite tracking list
Your tracking list is empty




NASA's NSSDC Master Catalog

Two Line Element Set (TLE):
1 29197U 78047C   26044.28179425  .00609138  00000-0  16364+0 0  9994
2 29197  63.6790 359.6530 1387963   6.2146 139.6483 12.21812644742972
Source of the keplerian elements: AFSPC